Theta_e
287 287 287 286 287 286 286 286 286 286 286 285 285 285 286 286 286 286 285 285 286 286 287 288 289 291 292 292 293 294 293 292 292 292 292 292 291 290 289 289 288 289 288 287 287 286 286 286 286 286 286 288 288 286 283 282 282 281 280 279 279 279 279 278 277 276 277 278 278 278 278 278 277 278 279 279 279 279 279 278 278 278 278 278 278
287 287 287 287 287 287 286 286 286 286 286 285 285 285 286 286 286 285 285 285 286 286 286 287 288 290 291 291 292 293 293 292 291 291 292 292 291 290 289 289 288 288 288 287 287 286 286 286 286 286 286 288 288 285 283 282 281 280 280 279 279 279 279 278 277 276 276 277 277 277 277 277 276 277 278 278 278 278 278 278 278 278 278 278 278
287 287 287 287 287 287 286 286 286 286 286 285 285 285 286 286 285 285 285 285 285 286 286 287 288 289 290 291 292 292 293 293 292 291 291 291 290 289 289 288 289 288 288 288 287 286 286 286 286 286 286 288 288 285 283 282 281 280 279 279 279 279 279 278 277 276 276 276 277 277 277 276 276 276 276 276 277 277 277 277 277 277 277 277 277
287 287 287 287 287 287 287 287 286 286 286 286 286 285 285 285 285 285 285 285 285 286 287 287 288 289 290 290 291 292 292 293 292 291 291 291 290 289 288 288 288 288 288 288 287 287 287 286 286 286 286 288 288 285 283 282 281 280 279 279 279 279 279 278 277 277 276 276 276 276 276 276 276 276 276 276 276 276 277 277 277 277 277 277 277
287 287 287 287 287 287 287 286 286 286 286 286 286 286 286 285 285 285 285 285 285 286 287 287 288 289 290 290 290 291 292 292 292 291 290 290 289 289 288 287 287 287 287 287 287 287 287 287 287 287 287 288 287 285 283 282 281 280 279 279 279 279 279 278 277 277 276 276 276 276 276 276 275 276 276 275 275 276 276 276 276 276 276 276 276
287 287 287 287 287 287 286 286 286 286 286 286 286 286 286 286 285 285 285 285 286 286 287 288 288 288 289 290 290 290 291 292 292 291 290 289 289 288 287 287 286 287 287 287 287 287 287 287 287 287 288 288 288 286 283 282 281 280 279 279 280 279 279 278 277 277 276 276 275 275 275 275 275 275 275 275 275 275 275 275 275 274 275 274 274
287 287 286 286 287 287 287 287 287 287 287 287 287 287 287 286 285 285 285 285 286 286 287 288 288 288 289 289 290 290 291 291 291 291 290 289 288 287 287 286 286 286 286 286 286 286 287 287 287 287 288 288 287 285 283 282 281 280 280 280 280 279 279 278 277 277 276 275 275 275 275 275 275 275 275 275 275 274 274 274 274 274 274 273 273
286 286 286 286 286 286 287 287 287 287 287 287 287 287 286 286 285 285 285 285 286 287 287 287 287 288 288 289 289 290 290 291 291 290 290 289 288 287 287 286 286 286 286 286 286 286 286 286 286 287 287 287 286 284 282 282 281 280 280 280 279 279 278 278 277 276 276 275 275 275 275 275 274 275 275 275 275 274 274 274 274 273 273 273 273
285 285 285 286 286 286 286 286 286 287 287 287 287 287 286 286 285 285 285 285 286 287 287 287 287 287 288 288 289 289 290 290 290 290 290 289 288 287 287 286 285 285 286 286 286 286 286 286 286 287 287 286 285 283 282 282 281 280 280 280 279 279 278 277 277 276 276 275 275 275 275 274 274 275 275 275 275 274 274 274 273 273 273 273 273
284 284 284 285 285 285 286 285 286 287 287 287 287 286 286 286 285 285 285 285 286 287 286 287 287 287 287 287 288 289 289 290 289 289 289 289 288 287 286 286 286 285 286 285 286 286 286 286 286 287 286 285 283 282 282 281 280 279 279 280 279 278 278 277 277 276 276 275 275 275 274 274 274 275 275 275 274 274 274 273 273 273 272 272 273
283 283 283 284 284 285 285 285 285 286 287 287 286 286 286 286 285 285 285 286 287 287 286 286 287 287 287 287 287 288 289 289 289 288 288 288 288 287 287 287 286 286 285 285 285 285 285 286 286 286 286 284 282 282 282 281 279 279 280 280 279 278 278 277 277 276 276 275 275 274 274 275 275 275 275 275 274 274 273 273 273 272 272 272 272
283 283 283 283 283 284 284 285 285 286 287 286 286 286 286 286 285 285 285 286 287 287 287 286 287 287 287 287 287 288 288 289 289 288 287 287 288 288 287 287 286 286 285 285 285 285 285 285 285 286 285 283 282 282 281 280 279 279 280 280 279 278 278 277 277 276 275 275 275 275 275 276 276 275 275 274 274 273 273 273 272 272 272 272 272
282 282 282 283 283 283 284 284 285 286 287 287 286 286 286 285 286 285 286 286 287 287 287 286 287 287 287 287 287 287 288 288 288 287 286 287 288 288 288 287 286 286 285 285 285 285 285 285 285 285 285 283 282 282 281 280 279 280 281 280 279 278 277 277 276 276 275 275 276 276 276 276 275 275 274 274 273 273 272 272 272 272 272 272 272
281 282 282 282 283 283 284 285 285 286 287 287 286 286 286 286 286 286 286 287 288 287 287 287 287 287 287 287 287 287 287 288 287 286 285 286 287 287 287 287 286 285 285 284 284 284 284 284 284 284 284 283 282 282 281 280 280 281 280 279 278 277 277 277 276 276 276 276 276 276 276 275 275 275 274 274 273 272 272 272 272 272 272 272 271
281 282 282 283 283 283 283 284 286 287 287 287 286 286 286 286 286 286 286 287 288 287 287 287 288 288 288 287 287 286 287 287 287 285 285 285 285 285 285 285 285 285 284 284 284 284 283 283 283 283 284 283 282 281 281 280 281 281 280 278 278 277 277 277 276 276 276 276 276 276 275 275 275 274 274 273 272 272 272 272 272 272 272 272 272
281 282 283 282 282 282 283 284 286 286 286 286 286 286 286 286 286 286 287 287 287 287 287 288 288 288 288 287 287 286 286 287 286 286 285 285 285 284 284 284 284 284 283 283 283 283 282 283 282 283 283 283 282 281 281 281 281 280 279 278 277 277 277 276 276 276 275 275 275 275 274 274 274 273 273 272 272 272 272 272 272 272 272 271 272
281 281 281 281 281 282 283 285 286 286 286 286 286 286 286 286 286 286 286 287 287 287 287 287 288 288 287 287 287 286 286 287 286 285 285 284 284 284 284 284 283 283 283 282 282 282 282 281 281 282 282 282 281 281 281 281 280 279 278 277 277 276 276 276 276 275 275 274 274 274 274 273 273 273 273 272 272 272 271 272 272 272 271 271 272
279 279 280 280 281 282 283 284 285 285 286 286 286 286 286 286 286 286 287 287 287 287 287 286 287 287 287 287 286 286 286 287 286 285 285 284 284 284 283 283 283 283 282 282 282 281 281 281 280 281 281 281 281 280 280 280 279 279 278 277 277 276 276 276 275 275 275 274 274 274 273 273 273 273 273 272 272 272 272 272 272 271 271 271 272
278 278 279 279 280 281 283 284 284 285 286 286 286 286 286 286 286 287 287 287 287 287 286 286 286 286 286 286 286 286 286 286 286 285 284 284 284 283 283 283 283 282 282 282 281 281 281 280 280 280 280 280 280 280 280 279 279 279 278 277 277 277 276 276 275 275 275 275 274 274 273 273 273 273 273 273 273 273 272 272 272 272 272 272 272
278 278 279 279 280 281 283 284 284 285 286 286 286 286 286 286 287 287 287 287 287 286 286 286 286 286 286 286 286 285 286 286 286 285 284 284 283 283 283 283 282 282 282 281 281 281 280 280 280 280 280 280 280 280 279 279 279 279 278 277 277 277 276 275 275 275 275 274 274 273 273 274 273 274 274 274 273 273 273 273 273 273 272 273 273
277 277 278 279 280 281 283 284 285 286 286 287 286 286 287 287 287 287 287 287 287 286 286 286 286 285 285 285 285 285 285 285 285 284 284 283 283 283 283 282 282 282 281 281 281 280 280 280 280 280 280 280 280 279 279 278 278 278 278 278 277 277 276 275 275 274 274 273 273 274 274 274 274 274 274 274 274 274 274 274 274 274 273 273 273
276 277 279 280 280 282 283 284 285 286 287 287 286 286 287 287 287 287 288 287 287 286 286 286 285 285 285 285 285 285 285 285 285 284 283 283 283 283 283 282 282 282 281 281 281 280 280 280 280 280 280 280 279 279 278 278 278 278 278 277 277 276 275 275 274 274 274 274 274 274 274 274 274 274 274 275 275 275 275 275 274 274 274 274 273
277 278 280 281 281 282 283 284 285 286 287 287 286 286 287 287 288 288 288 287 287 286 286 285 285 285 285 285 285 285 284 284 284 284 283 283 282 283 283 282 282 281 281 281 281 280 280 280 280 280 280 279 279 278 278 278 278 277 277 277 277 276 275 274 274 273 274 274 274 274 274 274 275 275 275 275 275 275 275 275 275 275 275 274 274
277 278 280 281 282 283 284 284 285 286 287 287 287 287 287 288 288 288 287 287 286 286 286 285 285 285 284 284 284 284 284 284 284 283 283 282 282 282 283 282 282 281 281 281 281 281 280 280 280 280 279 279 279 278 278 278 278 277 277 277 276 275 274 274 274 274 274 274 274 274 274 274 275 275 275 275 275 275 275 275 275 275 275 275 275
277 278 279 281 283 284 284 284 286 287 287 287 287 287 287 287 287 288 287 287 286 286 285 284 284 284 284 284 284 284 283 283 283 283 282 282 282 282 282 282 282 282 281 281 281 281 281 280 280 279 279 278 278 278 278 278 277 277 277 276 275 274 274 274 274 274 274 274 274 274 274 274 274 275 275 275 275 275 275 275 275 275 275 275 275
277 278 279 281 283 284 284 285 286 287 287 286 286 286 287 287 287 287 287 286 286 285 284 284 284 283 283 283 283 283 283 283 283 282 282 282 282 282 282 282 282 282 281 281 281 281 280 280 279 279 279 279 279 278 278 278 277 277 276 275 274 274 274 274 274 274 274 274 274 274 274 274 274 274 274 275 275 275 275 275 275 275 275 275 275
276 277 279 281 283 284 284 284 285 286 286 286 286 287 287 287 287 287 286 286 286 285 284 283 283 283 283 282 282 282 283 283 283 282 282 282 282 282 282 282 282 282 281 281 281 281 280 279 279 279 278 279 278 278 278 278 277 276 275 274 274 274 274 274 274 274 274 274 274 274 274 274 274 274 274 274 274 275 275 275 275 275 275 275 275
275 277 279 281 282 283 283 284 285 285 285 285 286 287 287 287 287 287 286 286 286 286 284 283 283 283 282 282 282 282 282 283 283 282 282 282 282 282 282 282 281 281 281 281 281 280 279 278 278 278 278 278 278 278 278 278 276 275 274 274 274 274 274 274 274 274 274 274 274 274 274 274 274 274 274 274 274 274 274 274 275 275 274 274 275
275 277 278 279 281 281 283 284 285 285 285 286 286 287 287 287 287 287 286 286 286 286 284 283 282 282 282 282 282 282 282 283 282 282 282 282 282 282 282 281 281 281 281 281 280 280 279 278 278 278 278 278 278 278 278 277 275 275 274 274 274 274 274 274 274 274 274 274 274 274 274 274 274 274 274 274 274 274 274 274 274 274 274 274 274
274 276 277 278 280 281 283 284 285 285 286 286 286 287 287 287 286 286 286 286 286 286 285 284 282 282 282 282 282 282 282 282 282 281 281 281 281 281 281 281 281 281 281 281 280 280 279 278 278 278 278 278 278 278 278 276 275 274 274 274 274 274 274 274 275 274 274 274 274 274 274 274 274 274 274 274 274 274 274 274 274 274 274 274 274
273 274 276 278 279 280 282 283 285 285 286 286 286 287 287 287 286 286 286 286 286 286 285 284 283 282 282 282 281 282 282 282 282 281 281 281 281 281 281 281 281 281 281 281 280 280 279 279 279 278 278 278 278 278 277 275 275 274 274 274 274 274 275 275 274 274 274 274 274 274 274 274 274 274 274 274 274 274 274 274 274 274 273 273 273
272 273 275 277 279 280 281 282 284 286 286 286 286 286 286 287 287 286 286 286 286 286 285 285 283 282 281 281 281 281 281 282 282 281 281 281 280 280 280 281 281 280 280 280 280 280 279 279 279 279 279 278 278 277 276 275 275 274 274 274 275 275 275 275 274 274 274 274 273 274 274 274 274 274 274 274 274 274 274 273 273 274 273 273 273
271 273 274 276 278 279 280 282 283 285 286 285 285 285 286 286 286 286 287 287 286 285 285 284 283 282 281 281 281 281 281 281 281 281 281 281 280 280 280 280 280 280 280 280 280 280 280 280 279 279 279 279 278 276 275 275 274 274 274 274 275 275 275 274 274 274 274 273 273 273 273 273 274 273 273 274 273 273 273 273 273 273 273 274 273
271 273 274 275 277 279 280 281 282 283 284 285 284 284 285 286 286 287 287 287 287 286 285 283 282 282 281 281 281 281 281 281 281 281 281 280 280 279 279 279 279 279 280 280 280 280 280 279 279 279 279 278 277 275 275 275 274 274 274 275 275 275 275 274 274 274 274 273 273 273 273 273 273 273 273 273 273 273 273 273 273 273 273 273 273
271 273 274 274 276 278 280 281 281 282 283 284 285 285 285 285 286 287 287 286 286 286 284 283 282 281 281 281 281 281 281 281 280 280 280 280 279 279 279 279 278 279 279 279 280 280 280 279 279 279 278 277 275 275 275 275 274 275 275 275 275 275 274 274 274 274 274 273 273 273 273 273 273 273 273 273 273 273 273 273 273 273 273 273 273
271 273 274 274 276 277 279 280 281 282 282 284 285 285 285 285 286 287 287 286 286 285 283 282 282 281 280 280 280 281 281 280 280 280 280 280 279 279 279 278 278 278 279 279 279 280 280 279 279 278 277 276 275 275 274 274 275 275 275 275 275 275 274 274 274 274 274 273 273 273 273 273 273 273 273 273 273 273 273 272 272 272 272 272 272
271 272 273 274 276 277 279 280 281 281 282 283 284 285 285 286 286 286 287 287 285 284 283 282 281 281 280 280 280 280 280 280 280 280 280 280 279 279 278 278 278 278 278 279 279 279 279 279 279 278 277 275 275 274 274 274 275 275 275 275 275 274 274 274 274 274 273 273 273 273 273 273 273 273 272 272 272 272 272 272 272 272 272 272 272
271 272 273 274 275 277 279 281 281 282 282 283 284 285 286 286 286 286 287 287 285 284 283 282 281 280 280 280 280 280 280 280 280 280 280 280 280 279 278 278 278 278 278 278 278 279 279 279 278 278 277 275 274 274 274 275 275 275 275 275 275 274 274 274 274 274 274 273 273 273 273 273 273 272 272 272 272 272 272 272 272 272 272 272 272
271 272 273 274 275 276 278 280 281 282 282 283 284 285 286 286 286 286 287 286 285 284 283 282 281 280 280 280 280 280 280 279 279 280 280 280 280 279 279 278 278 278 278 278 278 278 278 278 278 278 277 275 274 274 274 275 275 275 275 275 275 274 274 274 274 273 273 273 273 273 273 273 272 272 272 272 272 272 272 271 271 271 271 271 271
271 272 273 274 275 276 278 279 280 281 282 282 284 285 285 286 286 286 286 286 285 284 283 282 281 280 280 280 280 280 279 279 279 279 279 279 279 279 279 278 278 278 277 277 277 277 278 278 278 278 277 275 274 274 274 275 275 275 275 275 274 274 274 274 274 274 273 273 273 273 273 272 272 272 272 272 272 272 271 271 271 271 271 271 271
270 272 273 274 275 276 278 279 280 281 281 282 284 285 285 286 286 286 286 286 286 285 284 283 281 280 280 280 279 279 279 279 279 279 279 279 279 279 279 278 278 278 277 277 277 277 277 278 278 277 276 275 274 274 274 274 275 275 275 274 274 274 274 274 274 274 273 273 273 273 273 272 272 272 271 271 271 271 271 271 271 271 270 270 270
271 272 273 274 275 277 278 280 280 281 282 283 284 285 286 286 286 286 286 286 286 285 284 283 282 281 280 280 279 279 279 279 279 279 279 279 279 279 279 278 278 278 277 277 277 277 277 278 277 277 275 275 275 274 274 275 275 275 274 274 274 274 274 274 274 273 273 273 273 273 272 272 272 271 271 271 271 271 271 270 270 270 270 270 270
271 272 273 274 275 277 278 279 280 282 283 284 284 285 286 286 286 286 286 286 286 285 285 284 282 281 280 280 279 279 279 279 279 279 278 278 279 279 278 278 278 277 277 277 277 277 277 277 276 275 275 274 274 274 274 274 275 274 274 274 274 274 274 274 273 273 273 273 273 272 272 272 271 271 271 271 271 270 270 270 270 270 270 270 270
271 272 273 274 276 277 278 279 281 282 283 284 284 285 286 286 285 286 286 286 286 285 285 284 283 281 280 279 279 279 279 279 278 278 278 278 278 278 278 278 278 277 277 277 277 277 276 275 275 275 274 274 274 274 274 274 274 274 274 274 274 274 274 273 273 273 273 273 272 272 272 271 271 271 271 270 270 270 270 270 270 269 269 269 269
272 273 274 275 276 277 278 279 280 282 283 284 285 285 286 285 285 286 286 286 286 285 284 283 282 281 280 279 279 278 278 278 278 278 278 278 278 278 278 278 277 277 277 277 277 277 276 275 275 275 274 274 273 274 274 274 274 274 274 274 274 274 273 273 273 273 273 272 272 272 271 271 271 271 270 270 270 270 269 269 269 269 269 269 269
272 273 274 275 276 277 278 279 280 281 282 283 284 285 285 285 285 286 286 285 285 285 284 283 282 281 280 279 278 278 278 278 278 278 278 278 278 278 278 277 277 277 277 277 277 276 275 275 274 274 274 274 274 274 274 274 274 274 274 274 274 273 273 273 273 273 272 272 272 272 271 271 271 270 270 270 269 269 269 269 269 269 268 268 268
273 274 275 276 276 277 278 279 280 281 282 283 284 285 285 285 285 286 285 285 285 284 283 282 282 280 279 278 278 278 278 278 277 277 278 278 278 277 277 277 277 277 277 277 276 276 275 274 274 274 273 274 274 274 274 274 274 274 274 274 273 273 273 273 273 273 272 272 272 271 271 271 270 270 269 269 269 269 268 268 268 268 268 268 267
274 274 275 276 277 277 278 279 280 281 282 283 284 284 285 285 285 285 285 284 284 284 283 282 281 280 279 278 277 277 277 277 277 277 278 278 278 277 277 277 277 276 276 276 275 275 275 274 274 273 273 274 274 274 274 274 274 274 274 273 273 273 273 273 273 273 272 272 272 272 271 271 270 269 269 269 268 268 268 268 268 268 267 267 267
274 275 276 277 277 278 278 278 279 281 282 283 283 284 284 284 284 284 284 284 284 284 283 282 281 280 279 278 277 277 277 277 277 277 278 278 277 277 277 277 277 276 276 275 275 275 274 274 274 273 273 273 273 273 273 273 273 273 273 273 273 273 273 273 273 273 272 272 272 271 271 270 270 269 269 268 268 268 268 267 267 267 267 267 267
274 275 276 277 277 278 278 278 279 280 281 282 283 283 284 284 283 283 284 284 283 283 282 281 280 279 278 277 277 277 277 277 277 277 277 277 277 277 276 277 277 276 276 275 275 275 274 274 274 273 273 273 273 273 273 273 273 273 273 273 273 273 273 273 273 272 272 272 271 271 270 270 269 269 268 268 268 267 267 267 267 267 267 267 266
274 275 276 277 277 278 278 279 280 281 281 282 283 283 283 283 283 284 284 283 283 282 281 280 280 279 278 277 277 277 277 277 277 277 277 277 277 276 276 276 276 276 276 275 275 274 274 274 274 273 273 273 273 273 273 273 273 273 273 273 273 273 273 273 272 272 272 271 271 270 270 269 269 268 268 267 267 267 267 267 267 266 266 266 266
Wind_Speed
37 37 37 36 36 36 36 36 36 36 36 35 33 32 31 31 31 32 32 32 31 32 32 31 30 31 32 31 31 31 31 30 30 33 34 34 33 32 33 33 34 34 34 35 38 40 41 41 41 40 37 35 36 38 39 38 36 35 33 32 32 32 31 31 33 35 32 28 26 25 24 25 25 24 23 23 22 23 25 25 25 26 27 28 28
38 38 38 37 36 36 36 37 37 37 38 37 35 32 31 32 32 32 33 33 32 32 32 31 31 31 32 32 31 32 32 31 30 32 35 35 34 33 33 34 35 34 34 35 36 37 39 40 41 40 37 36 38 39 39 38 36 35 33 33 33 32 31 31 32 33 33 29 27 27 26 26 27 26 25 25 25 25 26 26 25 27 28 29 31
38 38 38 37 36 36 36 36 37 37 37 36 35 33 32 32 32 33 34 34 32 32 32 32 31 31 32 33 32 31 32 33 31 32 35 36 35 34 35 35 35 34 35 35 34 36 38 40 41 40 37 37 39 40 40 38 35 35 33 32 32 32 30 30 31 32 32 30 29 28 28 27 28 28 27 26 26 27 28 28 27 29 29 30 32
39 39 38 38 37 36 37 36 36 35 35 35 33 32 32 32 33 34 35 34 33 32 32 32 32 32 33 34 33 31 32 34 34 33 35 37 36 35 35 35 34 34 35 34 35 36 38 39 40 39 38 38 39 40 40 38 35 34 33 32 31 31 29 29 30 30 31 31 30 29 30 29 29 29 28 27 27 28 29 30 31 31 32 32 33
39 38 38 38 38 38 37 36 35 35 34 34 32 31 31 32 34 35 35 35 33 32 32 32 32 32 32 32 32 32 32 33 36 35 35 37 37 36 35 34 34 34 34 34 35 35 35 37 37 37 38 38 39 41 41 38 35 33 32 31 30 29 28 28 28 29 30 32 31 30 31 32 31 30 28 28 28 30 31 31 31 32 33 34 32
38 38 38 38 38 38 37 35 35 34 34 33 32 31 31 31 33 34 35 34 33 32 31 31 31 31 31 31 31 32 32 34 36 37 35 35 36 35 34 34 34 34 33 34 34 34 34 34 35 35 37 38 38 40 40 37 34 33 32 31 29 28 28 28 28 29 30 31 32 32 33 33 32 31 29 28 28 30 32 32 31 29 28 28 29
37 37 37 38 38 38 37 37 36 34 33 32 31 30 30 31 32 33 33 32 32 31 30 30 30 31 31 31 30 30 31 33 36 37 35 34 35 35 35 35 35 34 34 34 34 34 33 34 34 34 36 37 37 39 39 36 33 32 31 29 27 27 28 28 28 28 29 30 32 34 34 33 32 32 31 29 30 31 32 32 30 28 26 27 32
36 36 37 38 38 38 38 38 37 35 32 30 30 29 29 30 32 33 32 31 31 30 29 29 29 30 31 31 31 30 30 32 35 37 36 35 35 35 35 36 35 34 34 34 34 34 33 33 34 35 36 36 36 38 37 34 32 31 29 27 27 28 28 28 27 28 29 30 32 34 34 32 32 32 31 29 29 28 25 25 29 33 35 36 38
37 38 38 39 40 40 39 39 38 36 32 30 29 28 28 30 31 32 32 31 30 30 30 29 28 28 30 31 30 30 29 31 34 36 37 36 36 36 35 35 35 34 34 34 34 34 33 33 33 34 34 35 35 36 34 32 30 29 27 26 27 28 28 27 27 28 29 31 32 33 32 32 32 32 32 29 25 24 24 26 33 39 42 45 46
39 40 41 42 42 42 41 40 39 37 32 29 28 28 28 29 31 31 31 30 29 30 29 28 27 27 29 30 30 30 30 30 32 34 36 36 35 35 35 34 34 34 34 33 34 34 34 33 32 32 33 33 34 34 32 30 29 27 25 25 27 27 27 27 28 29 29 31 31 30 31 32 32 32 33 31 27 28 31 32 36 39 40 45 48
43 44 44 45 45 43 41 40 39 37 33 29 28 27 27 28 30 31 30 29 28 28 27 26 26 27 28 28 29 30 31 31 30 31 34 35 33 32 33 33 33 33 33 33 33 33 33 31 30 31 33 34 33 32 30 29 28 26 25 27 27 26 26 27 28 28 28 29 29 28 29 32 31 30 32 32 30 32 34 34 38 40 38 39 42
46 47 48 49 47 42 40 39 38 36 34 31 29 28 28 28 29 29 28 27 26 25 26 26 25 25 26 27 27 28 30 30 28 28 31 32 30 30 31 32 32 32 32 32 32 31 30 29 29 31 33 33 33 32 30 28 27 26 27 27 26 25 26 26 26 27 26 25 25 26 28 30 31 30 30 31 32 33 36 38 39 39 38 36 36
49 49 50 49 45 40 37 37 36 35 33 32 31 30 30 30 29 28 27 25 24 24 25 25 23 23 24 25 27 27 28 28 26 26 27 28 28 30 30 30 31 31 31 31 31 30 29 28 28 30 33 33 33 32 29 28 27 27 27 26 25 25 25 25 25 24 22 22 24 27 28 29 29 29 30 31 34 37 38 39 37 36 37 38 39
52 51 49 44 39 37 36 35 34 33 32 32 31 31 31 30 28 26 25 24 24 24 24 24 23 22 23 25 27 28 28 27 25 24 25 25 26 29 30 28 28 28 29 30 30 28 27 27 27 28 31 34 33 31 29 28 27 27 27 26 25 25 24 23 22 21 20 23 26 28 29 29 30 33 35 36 37 36 35 35 35 36 39 43 46
54 48 41 36 35 37 37 35 34 32 31 31 30 30 31 29 26 25 24 23 24 24 23 24 24 22 23 25 28 29 28 25 22 21 22 24 24 27 30 28 25 25 26 26 27 26 26 26 25 26 28 32 33 30 28 28 28 27 27 26 25 25 23 22 22 23 24 27 30 32 33 35 36 38 38 34 32 31 31 34 37 40 44 48 51
44 37 32 34 38 39 38 36 33 30 30 30 29 29 29 28 25 24 24 24 23 23 23 23 23 22 24 26 29 30 28 24 20 18 20 22 23 27 32 30 25 23 24 23 23 24 24 24 25 25 25 28 29 27 27 28 27 27 26 25 24 24 24 23 23 24 26 28 30 32 33 34 34 33 31 29 29 32 35 38 40 41 46 50 50
35 34 35 38 39 37 35 33 30 28 28 28 28 28 28 27 25 24 25 24 23 22 22 22 20 21 24 27 28 29 27 22 18 16 18 20 23 27 32 31 26 23 23 22 22 21 20 22 23 23 24 26 27 26 27 27 26 25 25 24 24 24 23 22 22 23 25 27 27 27 27 27 27 27 27 28 31 34 37 39 39 39 42 46 46
38 39 38 38 36 33 30 29 29 28 28 26 26 27 27 26 26 24 24 23 21 21 21 22 22 21 23 26 27 27 25 20 16 15 17 19 23 28 32 31 27 25 25 24 22 19 17 17 20 21 22 25 27 27 26 26 25 25 24 23 23 23 20 19 20 21 22 22 21 20 20 21 22 23 24 25 26 29 32 34 34 34 36 38 40
39 38 36 36 35 31 28 27 28 27 26 25 25 25 25 25 25 24 22 21 21 21 21 22 23 22 23 24 25 25 23 18 14 14 16 18 22 28 32 30 26 26 26 25 23 20 16 15 17 20 22 25 27 26 25 25 24 22 22 22 21 20 18 17 18 18 17 16 16 16 16 16 17 17 17 18 19 21 24 26 27 28 31 32 32
37 37 37 37 34 29 25 25 25 24 23 24 23 23 24 24 23 22 22 22 23 23 22 23 23 23 23 24 23 22 20 17 14 13 15 19 22 27 31 28 26 26 26 25 23 20 17 15 15 19 23 25 25 24 23 23 21 20 21 20 18 17 16 15 15 14 13 13 13 12 11 11 12 12 12 13 15 17 18 20 21 23 26 28 28
38 41 41 37 33 27 23 22 22 21 20 21 21 21 22 21 21 21 22 23 25 25 25 24 24 23 23 23 21 19 17 14 13 12 15 19 22 26 28 27 25 25 25 24 22 19 17 16 16 21 25 25 24 23 22 21 20 19 18 17 16 14 13 12 11 10 11 11 9 8 8 8 8 10 11 13 14 15 17 18 19 21 23 24 25
43 45 42 35 29 24 21 19 19 18 17 18 20 21 20 20 20 21 22 23 25 26 26 26 24 23 22 20 18 16 13 12 12 12 15 18 21 24 26 24 22 23 23 23 20 18 17 16 18 22 25 25 24 22 21 20 20 18 15 14 13 11 9 9 9 9 9 7 5 5 6 7 9 10 11 12 14 16 18 19 20 22 22 22 23
45 43 37 32 27 22 18 17 17 16 15 16 18 20 21 22 21 21 22 23 25 27 27 26 24 22 20 18 14 11 11 11 12 13 15 17 20 22 23 23 22 22 21 20 18 17 16 16 18 22 23 24 23 21 21 22 21 18 15 13 10 7 7 8 9 8 6 4 3 4 6 7 9 10 11 13 15 16 19 21 22 22 22 21 21
45 41 36 31 25 18 15 15 15 13 13 16 18 20 22 23 21 21 22 24 26 27 26 24 21 19 17 14 10 9 9 10 12 13 15 17 19 20 22 23 22 20 18 17 16 16 16 16 18 21 22 21 20 20 22 23 21 18 16 12 8 7 8 8 7 5 3 3 3 4 5 7 9 10 12 14 16 17 18 20 22 23 22 21 20
44 41 36 30 22 16 14 16 15 14 14 16 18 20 22 22 21 21 23 25 26 26 24 20 18 16 13 10 7 7 8 9 11 13 14 16 20 21 19 20 20 17 15 15 15 15 15 16 18 19 20 20 21 23 25 23 20 18 13 9 8 8 8 6 5 4 3 3 3 3 5 8 10 12 13 15 16 17 17 18 20 22 22 22 20
43 41 36 27 19 15 15 17 16 15 15 16 19 20 20 20 20 22 23 24 26 26 22 17 14 12 10 7 5 6 7 9 11 13 14 16 20 22 19 17 17 15 13 13 13 14 15 16 18 20 22 24 26 28 26 23 19 15 11 9 9 9 7 6 5 5 4 3 1 3 6 8 11 12 13 14 15 16 17 17 18 20 22 22 21
42 41 35 24 16 16 19 20 17 16 17 18 19 19 18 19 20 21 22 24 26 25 21 16 12 9 6 5 4 5 7 9 11 13 16 18 21 23 21 19 18 15 15 16 16 15 16 18 21 24 27 28 28 26 22 17 14 11 10 10 10 8 8 8 7 6 5 2 1 4 7 9 11 12 13 13 14 15 17 18 19 21 22 23 23
41 39 35 26 19 19 22 20 15 16 19 20 18 17 18 19 19 20 22 24 26 24 20 15 11 7 5 4 4 4 7 9 11 14 16 18 21 24 25 24 22 19 19 21 20 19 21 24 26 28 29 29 26 23 18 13 11 11 11 11 10 10 10 9 8 7 4 2 3 5 7 9 10 11 12 13 14 15 17 19 20 22 23 24 25
40 38 35 31 24 20 19 17 15 16 18 19 18 17 17 18 18 20 23 24 24 23 19 14 10 6 5 4 4 4 5 7 9 12 15 17 20 24 27 27 26 23 22 23 24 25 26 27 27 28 28 27 23 19 15 13 12 13 12 11 12 12 11 10 9 7 4 3 4 6 7 8 9 11 13 14 15 17 18 19 20 21 23 25 26
40 38 35 33 28 22 18 16 16 17 17 19 20 18 16 17 20 22 23 24 24 21 17 14 11 8 6 4 3 3 4 7 9 11 15 17 18 22 27 27 26 24 23 23 25 27 27 26 25 26 25 23 19 15 14 13 13 13 13 13 14 13 12 11 9 6 4 4 5 6 7 8 10 11 13 14 16 17 18 19 20 21 22 24 26
38 37 35 33 30 25 21 18 16 16 17 20 21 19 18 21 23 22 23 25 25 20 15 13 11 10 8 5 3 1 4 9 11 12 15 17 17 20 26 27 25 24 24 23 24 25 26 24 24 23 21 19 16 14 13 13 13 14 15 15 15 14 12 11 9 6 5 4 5 6 6 8 10 12 14 15 16 17 18 19 21 22 22 24 25
35 34 33 32 28 26 24 20 16 14 16 19 23 23 22 23 24 24 24 26 25 21 17 14 11 10 9 6 4 1 2 7 11 12 15 17 17 19 24 27 26 24 23 22 22 24 24 22 21 21 19 17 15 14 14 14 14 16 17 16 15 14 13 11 9 6 5 5 5 5 6 9 10 12 14 15 16 17 19 20 21 22 22 23 24
30 30 31 30 28 26 24 21 17 15 14 18 23 25 23 22 23 24 26 26 23 20 19 17 13 9 8 7 5 3 2 5 9 13 15 17 18 19 22 26 26 25 24 23 22 23 22 20 19 19 18 16 15 15 15 15 16 17 18 16 15 14 12 10 9 7 5 5 4 4 6 8 10 12 14 15 17 18 19 20 22 22 23 24 25
26 27 27 27 27 25 23 21 20 18 15 16 20 23 23 22 22 23 26 26 24 21 20 17 14 9 6 6 6 6 4 4 7 12 15 17 19 19 20 22 24 23 23 22 22 22 21 19 18 18 17 15 15 16 16 18 19 19 19 18 16 14 12 10 9 7 5 4 3 4 6 8 10 12 14 15 17 18 20 21 23 24 25 25 26
25 24 24 25 26 24 22 21 21 20 17 16 18 21 23 23 21 22 24 25 24 23 21 18 14 9 3 6 8 8 6 4 7 11 15 18 20 20 22 25 25 23 21 20 20 20 20 18 17 17 16 15 16 17 18 19 20 20 19 17 16 14 12 10 9 7 5 3 2 3 5 7 9 11 13 15 17 18 20 22 23 24 25 26 26
26 24 24 25 24 23 22 21 21 20 17 15 16 19 21 21 20 20 22 23 23 22 21 19 15 9 1 7 10 10 7 5 8 12 15 18 20 21 25 28 28 24 22 21 20 20 19 17 16 16 15 15 17 18 19 20 20 20 18 17 15 13 12 10 9 7 5 3 1 2 4 7 9 11 12 14 16 17 19 21 22 23 24 25 26
26 24 24 25 23 22 21 20 20 20 17 15 15 17 18 19 18 18 21 23 21 20 20 19 15 8 5 10 12 11 8 7 9 12 15 17 19 22 25 28 27 23 22 21 20 19 19 18 16 15 14 15 17 19 20 21 20 20 18 17 15 13 11 10 8 6 4 2 0 2 4 6 8 10 11 13 15 17 18 20 21 23 23 24 25
25 23 23 24 23 22 20 18 19 19 17 15 15 15 16 16 16 17 20 21 19 19 18 16 13 9 9 12 14 12 9 9 11 13 14 17 20 22 24 24 23 20 19 19 20 20 19 18 16 14 13 14 17 19 21 21 20 19 18 16 15 13 11 9 8 6 5 3 1 2 4 5 7 9 10 12 14 16 17 19 20 21 23 24 25
26 23 22 22 21 21 19 18 18 18 17 15 14 13 13 14 14 16 19 18 17 17 17 14 11 9 11 13 13 12 11 11 13 15 16 18 20 21 21 21 19 17 15 17 20 21 19 18 16 14 14 15 17 19 20 20 19 18 17 15 14 12 11 9 8 6 5 4 3 3 4 6 7 9 10 12 14 15 17 19 20 22 23 24 25
28 25 24 22 21 19 18 17 16 15 15 14 13 12 12 12 13 15 16 16 16 16 15 13 10 8 11 13 13 13 12 12 14 16 18 18 18 18 17 18 18 15 12 14 18 21 20 18 16 15 15 16 17 19 20 19 19 18 16 14 13 11 10 9 8 7 6 4 4 4 5 6 7 9 10 11 13 15 16 18 20 21 23 23 24
28 26 25 23 21 19 17 15 14 13 12 11 11 11 10 10 11 12 13 15 15 15 14 13 9 6 9 11 12 12 10 10 11 15 17 17 16 16 15 14 15 14 12 11 15 18 19 18 17 16 16 17 18 20 20 19 18 17 15 14 12 11 10 9 8 7 6 5 5 5 6 6 7 9 10 11 13 14 15 17 19 20 22 23 24
28 27 26 23 21 18 16 14 13 12 10 10 9 8 8 9 9 10 10 12 13 13 14 13 9 5 5 8 10 11 9 8 8 11 14 14 13 14 13 12 11 12 12 11 12 14 16 18 17 17 17 18 19 20 20 18 17 15 14 12 11 10 10 9 8 7 7 6 6 6 6 7 7 9 10 11 12 13 14 16 17 19 21 23 24
28 27 25 23 20 17 15 14 13 11 10 9 7 6 6 7 8 8 8 10 11 12 13 13 10 6 3 6 7 8 9 8 6 7 11 12 11 11 11 10 10 11 11 11 11 12 13 16 16 16 16 17 18 19 17 15 14 13 12 11 11 10 9 9 8 8 7 6 6 6 6 6 7 9 10 11 12 13 14 15 17 18 20 22 23
28 26 25 22 19 16 14 13 12 10 8 6 4 4 5 6 6 6 6 9 11 12 12 12 10 6 2 4 5 7 9 8 6 6 9 10 10 11 10 10 10 10 10 12 13 12 13 14 15 16 17 17 17 17 15 13 12 11 10 10 10 9 9 8 8 7 7 6 6 5 5 6 7 8 10 10 11 13 14 15 17 19 20 22 23
27 26 24 22 19 17 15 13 11 9 7 5 4 4 4 5 5 4 5 8 9 10 11 11 10 6 2 4 5 6 8 8 6 7 9 10 11 12 11 11 11 11 12 14 15 14 14 14 15 16 18 18 18 18 16 14 13 12 10 10 10 9 8 8 7 7 7 6 5 5 5 6 7 8 9 10 11 12 14 15 17 19 21 22 23
25 25 23 21 20 18 16 14 12 10 8 6 5 4 4 4 3 3 5 7 7 9 11 10 9 7 3 4 6 7 8 8 8 9 11 12 13 13 13 13 12 12 13 15 15 15 14 15 15 16 17 19 19 17 15 13 11 10 9 8 8 8 7 7 7 7 6 5 5 5 5 6 7 8 9 9 10 12 13 15 17 19 20 21 22
25 23 22 21 19 18 17 16 14 13 11 9 7 5 4 3 2 3 5 5 6 8 10 9 8 7 4 6 8 8 9 10 10 11 13 14 15 16 15 13 12 12 13 14 14 14 14 15 16 16 17 18 17 15 13 11 9 8 7 7 7 6 6 6 6 6 5 5 5 5 6 7 7 8 8 9 10 12 13 15 17 19 20 21 22
25 24 22 20 19 19 18 17 16 15 15 13 10 7 5 3 2 3 4 4 6 8 9 8 8 7 5 7 9 10 11 12 12 13 14 16 18 18 16 13 12 12 12 13 13 13 14 16 17 17 18 17 15 13 12 10 8 7 6 6 6 6 5 5 5 5 5 5 5 6 7 7 8 8 9 9 11 12 14 16 17 19 20 21 21
25 24 22 20 19 19 20 19 17 16 16 14 11 10 8 6 5 4 4 5 7 8 8 7 7 7 6 8 10 11 12 13 14 15 15 17 19 19 16 13 12 11 11 12 13 13 14 16 18 18 18 17 15 13 11 9 7 6 5 5 5 5 4 4 4 4 5 6 6 7 8 8 8 9 9 10 11 13 15 17 18 19 20 21 21
25 23 22 20 19 19 19 18 16 15 15 14 12 12 10 8 7 6 6 6 6 7 7 7 7 7 7 9 12 13 14 15 16 16 17 18 19 18 16 13 10 9 10 11 12 13 14 16 17 18 18 17 15 13 10 8 6 5 4 3 3 3 3 3 4 5 6 6 7 8 8 8 8 9 9 11 12 14 15 17 18 19 20 20 20
25 23 22 21 20 19 18 17 15 14 15 14 12 10 9 8 7 7 6 5 5 6 6 6 6 6 8 12 13 14 15 17 17 16 17 19 19 17 16 13 9 8 9 11 12 13 14 15 16 17 17 17 15 13 10 8 6 4 2 2 2 2 3 3 4 5 6 7 7 8 8 8 8 8 9 11 12 14 16 17 18 19 20 19 19
Wind_Direction
320 320 321 321 319 319 319 318 317 316 316 316 316 315 316 316 314 313 310 306 303 301 298 297 293 286 281 279 275 269 267 266 260 252 246 242 241 241 241 241 241 239 238 238 236 235 236 236 237 239 242 246 245 241 241 243 246 248 250 251 252 253 253 252 254 260 265 270 273 276 280 283 286 291 295 297 301 301 298 298 299 300 301 302 302
319 320 320 320 319 319 319 318 316 315 314 315 315 314 315 315 314 313 310 306 303 299 297 296 294 288 282 278 277 272 265 264 260 253 247 242 239 239 239 238 238 236 235 234 234 234 234 234 235 236 239 244 243 239 238 242 245 247 249 250 253 254 254 254 256 259 264 269 274 278 281 283 286 290 295 299 302 301 298 299 300 301 303 305 305
320 320 319 319 318 317 316 315 314 313 313 314 314 314 314 315 314 312 309 306 302 298 296 295 292 287 282 278 276 274 267 262 259 254 248 242 238 237 238 238 236 234 234 232 231 231 232 232 234 235 237 243 243 238 236 239 243 246 248 250 253 254 255 256 256 259 264 269 274 278 280 281 285 289 295 300 302 300 299 301 303 304 306 307 306
322 321 319 318 317 315 314 313 312 312 312 312 312 312 313 313 312 310 308 306 301 297 295 293 290 286 282 278 276 275 270 262 257 254 249 244 239 236 237 238 238 236 235 233 230 230 231 233 234 234 236 242 243 237 234 237 240 243 246 249 251 253 255 256 257 260 264 267 270 275 278 280 283 288 295 301 301 301 301 304 307 307 308 308 307
322 322 321 319 316 315 314 314 313 312 312 311 309 310 311 311 309 307 306 304 301 298 295 292 290 286 282 281 278 275 273 264 256 252 249 245 241 238 237 238 238 237 236 235 233 232 232 233 234 234 237 241 241 235 232 235 238 241 245 247 249 252 254 255 257 259 262 264 268 273 277 281 284 289 296 300 301 302 302 305 307 307 309 311 310
321 321 322 321 317 315 315 315 313 312 311 309 308 307 308 308 307 304 303 302 300 299 296 291 290 286 283 282 280 277 274 267 257 251 249 247 243 241 240 238 237 237 237 236 235 234 233 234 235 236 239 241 239 233 230 232 236 239 243 245 248 251 252 253 255 257 259 262 266 270 275 280 286 291 296 299 299 299 300 302 303 303 305 307 307
320 321 321 321 318 314 313 312 310 308 308 308 307 306 306 306 305 303 302 302 301 300 296 291 289 287 282 281 281 279 276 269 259 250 246 246 244 242 242 241 238 236 237 237 237 235 234 235 237 239 240 240 237 230 228 230 234 238 242 245 248 249 250 251 252 255 258 261 264 268 273 280 286 291 295 298 298 299 301 302 301 300 300 299 301
322 322 321 319 316 314 313 311 309 306 305 306 306 306 306 305 304 303 302 302 302 300 296 292 289 287 284 281 281 282 279 272 261 249 243 243 243 242 242 242 240 238 237 237 236 236 236 237 240 242 242 239 234 228 226 229 233 237 240 243 245 246 247 249 251 253 256 258 261 267 274 281 286 292 296 295 295 297 299 297 296 298 301 302 302
323 323 320 317 315 313 312 312 311 307 305 305 306 305 305 305 304 303 302 302 302 302 299 293 289 288 287 284 283 283 282 276 265 252 243 240 241 241 241 242 242 240 239 238 238 237 237 238 241 243 240 235 230 226 226 230 233 236 238 239 242 244 245 247 249 250 253 256 260 267 274 280 285 290 292 290 289 292 294 292 292 297 303 304 304
321 320 318 317 314 310 308 310 311 309 308 309 308 305 305 306 306 304 303 302 302 303 302 297 291 291 290 287 285 284 283 280 271 257 246 241 241 242 242 242 242 242 242 241 239 238 238 239 242 241 235 229 225 225 226 229 232 234 235 237 240 243 244 245 247 248 251 255 260 268 274 279 284 287 289 290 289 291 292 291 293 298 303 304 303
319 319 317 318 315 308 304 305 307 307 309 310 309 307 306 306 305 304 302 301 301 303 302 298 293 292 293 291 289 286 284 282 277 264 252 245 243 242 242 242 242 242 243 242 241 240 239 239 240 236 228 223 222 223 225 229 230 230 232 235 238 241 243 245 247 250 254 257 263 269 272 278 283 286 288 289 289 289 290 292 294 298 300 300 299
318 317 316 317 316 309 302 301 302 304 307 309 308 308 307 305 304 304 302 301 302 302 300 296 293 295 298 298 297 292 286 283 281 269 255 246 243 242 240 240 240 240 241 242 242 241 240 239 238 232 224 220 220 222 224 227 227 228 232 235 238 240 242 245 248 250 254 258 265 271 275 280 283 283 283 283 284 287 290 293 295 297 297 293 289
317 316 315 316 315 311 305 301 299 301 304 307 308 308 306 304 303 303 302 302 303 302 299 297 296 299 302 304 303 299 290 284 281 270 256 244 240 241 240 238 238 238 239 240 240 240 238 237 236 230 223 219 220 222 223 224 225 228 232 234 237 239 241 245 249 252 257 264 269 273 274 275 275 274 275 278 284 288 290 292 294 293 292 288 284
316 315 314 314 313 313 311 305 300 300 303 305 306 306 305 304 302 302 302 303 303 302 301 300 299 298 301 304 304 302 295 286 279 269 255 240 232 235 239 239 237 236 237 238 238 238 237 236 236 232 224 218 218 220 220 221 224 227 230 232 234 237 239 242 245 248 252 257 261 264 265 265 266 270 275 280 284 286 287 289 289 287 286 284 286
315 314 313 313 313 313 313 307 300 299 301 302 303 304 304 304 302 299 300 302 302 301 301 301 300 297 299 302 304 303 299 289 278 265 250 237 226 225 231 236 235 234 235 236 236 236 236 235 236 235 227 220 219 219 219 220 223 226 228 230 233 236 238 239 240 241 243 245 251 255 259 262 266 271 276 280 281 282 284 284 284 283 283 285 288
316 316 314 313 313 313 315 311 302 299 301 302 302 304 306 307 303 298 297 298 300 301 302 304 302 300 299 299 302 304 301 289 275 260 245 234 221 217 224 229 230 231 232 232 232 232 233 234 234 233 228 222 218 217 217 219 222 225 226 228 232 235 238 241 243 246 247 249 253 257 261 265 269 274 278 280 279 281 282 282 281 281 282 284 288
319 317 314 313 313 314 318 316 310 306 306 304 304 307 311 311 304 297 295 296 300 304 305 304 301 298 296 295 298 302 300 287 268 254 242 228 214 212 220 224 224 227 230 231 231 230 230 232 233 231 226 219 213 211 213 215 218 219 223 227 230 233 237 241 243 246 249 252 256 261 266 272 277 281 282 280 279 279 279 281 284 285 283 285 290
320 317 315 316 316 316 317 316 313 310 307 305 307 312 313 311 304 299 298 301 304 307 306 303 300 297 293 293 296 299 296 281 258 245 238 224 210 211 218 220 219 223 227 229 231 230 229 230 230 226 220 210 205 205 208 211 213 216 221 224 228 234 238 241 243 245 250 256 262 268 273 277 279 280 281 280 281 280 280 283 288 288 287 287 292
324 320 318 318 317 315 313 312 311 309 306 306 310 313 312 309 305 304 306 307 306 306 304 301 298 296 293 292 294 296 290 272 247 235 230 220 209 211 218 218 216 220 224 226 228 227 226 228 225 218 208 200 198 201 205 210 213 215 219 223 228 236 240 240 243 250 257 265 272 275 277 277 278 282 286 290 291 290 289 291 293 292 291 293 296
326 321 318 316 315 312 309 309 310 307 305 308 312 314 313 311 309 311 312 309 307 309 308 304 299 297 295 293 292 291 283 261 239 227 222 213 207 212 218 218 216 219 221 221 223 222 220 223 218 205 196 193 195 198 201 207 211 212 217 224 231 237 240 242 250 261 270 274 276 275 275 279 286 292 299 306 308 307 306 305 304 301 299 300 301
326 322 321 318 313 307 305 308 310 309 307 310 315 317 316 314 315 316 314 312 313 315 312 306 302 299 297 294 289 284 274 251 231 222 215 208 204 211 219 219 217 219 219 218 221 219 215 215 207 195 191 191 194 194 193 200 211 216 219 227 234 236 240 250 263 272 274 273 272 272 277 293 308 309 311 317 321 324 327 325 323 319 312 309 308
325 324 325 323 316 309 307 311 313 311 309 313 320 321 317 316 319 320 319 317 317 315 311 307 304 300 295 292 283 273 262 240 221 211 208 205 202 209 220 222 219 218 216 216 218 216 211 210 201 191 188 188 190 189 185 192 209 221 225 229 233 238 250 265 271 270 267 265 270 285 292 300 311 315 319 325 329 334 338 339 337 334 326 320 316
328 330 330 330 325 316 312 317 317 311 310 317 322 320 316 318 323 324 323 320 316 313 310 308 304 297 291 288 279 262 244 226 212 203 201 200 198 204 218 223 220 218 218 216 216 212 209 207 198 189 185 185 185 182 179 189 205 217 224 229 236 248 260 263 261 257 252 251 276 303 305 303 312 322 329 334 337 339 342 342 342 341 337 332 327
336 338 336 334 330 322 319 322 319 311 314 320 319 318 320 324 328 328 324 318 314 313 311 307 301 295 289 282 271 253 233 217 208 201 197 195 193 198 212 222 220 220 221 217 214 211 208 202 193 185 182 180 177 178 183 192 203 212 220 230 243 254 253 248 239 230 228 242 268 296 312 319 328 337 342 344 345 345 346 345 345 347 346 343 339
339 342 341 336 331 328 325 322 318 314 318 321 321 325 328 327 328 328 323 318 316 315 313 308 301 294 285 272 255 243 228 212 206 202 195 192 190 191 204 219 219 215 217 215 209 208 205 197 188 179 175 172 173 179 187 194 203 215 226 237 243 243 238 226 207 200 213 231 253 294 327 338 345 349 350 351 349 348 348 349 349 352 352 351 349
339 344 346 340 335 337 333 327 328 330 330 330 330 332 332 328 327 327 324 322 323 323 320 314 305 294 283 267 244 230 218 206 204 201 193 190 189 184 191 212 214 205 206 207 198 197 198 190 179 170 169 175 180 184 189 197 208 220 230 232 230 228 215 196 188 192 201 207 250 336 351 355 355 354 353 352 351 350 351 353 354 356 356 354 355
338 343 347 347 352 356 345 335 335 337 335 334 335 336 335 331 329 329 329 332 333 331 327 323 315 302 284 264 240 222 212 204 203 200 192 188 187 181 182 197 202 191 190 194 190 187 185 179 172 171 174 181 187 191 197 205 213 218 217 216 216 206 190 184 184 187 189 182 23 7 7 6 1 358 355 353 352 352 355 357 358 359 359 357 358
335 339 347 354 1 359 346 336 337 340 338 339 341 340 336 332 330 335 337 338 339 337 332 329 326 314 290 266 242 220 211 205 202 200 194 188 187 181 177 185 192 185 179 184 186 182 178 175 174 175 179 185 191 196 201 204 205 207 207 206 199 187 181 181 181 178 168 120 49 27 20 14 8 5 2 359 357 357 358 359 360 1 2 2 0
333 337 346 353 356 355 345 341 348 350 345 346 344 337 332 331 335 342 342 341 342 341 333 329 330 323 304 283 262 240 221 205 196 194 192 189 189 186 180 182 189 186 178 181 185 182 179 178 177 177 181 187 191 194 197 198 200 203 201 193 184 179 177 179 178 169 146 94 58 41 30 20 14 13 11 8 5 3 2 1 1 2 3 3 3
331 335 342 348 351 353 349 349 355 353 348 348 345 337 333 337 341 345 345 343 345 343 333 326 323 315 312 307 284 255 211 195 186 183 185 185 187 188 185 185 188 187 182 183 187 185 181 179 179 180 184 187 190 192 195 197 198 198 192 183 178 175 177 177 169 153 129 97 66 48 34 22 18 17 15 13 11 9 7 6 6 5 4 3 4
331 332 337 342 346 349 349 348 351 353 352 351 348 343 343 343 344 348 349 346 344 342 337 329 317 303 302 305 290 246 195 198 195 184 181 180 181 184 187 188 189 189 187 186 188 187 183 181 181 183 184 185 189 193 195 195 194 190 184 178 175 175 178 174 161 145 131 104 71 50 34 25 22 19 17 15 13 11 10 9 10 10 8 6 5
330 330 333 336 339 343 345 345 345 350 354 354 351 347 346 345 345 348 349 346 343 342 341 338 323 298 285 278 267 255 187 200 200 190 179 176 176 180 186 190 192 192 189 189 191 189 186 185 184 183 183 185 190 193 192 192 190 185 178 175 176 178 175 166 156 149 135 106 75 52 36 27 23 20 18 16 13 10 10 11 12 12 11 9 7
331 329 331 334 334 337 341 342 340 343 349 352 350 348 348 347 344 345 346 345 344 344 343 341 335 310 274 252 234 206 170 185 195 191 179 172 173 177 182 189 195 194 190 191 194 190 186 186 187 185 184 188 191 191 190 189 185 179 175 175 178 178 173 164 160 155 137 112 80 51 37 27 22 21 19 15 12 10 9 11 12 12 11 11 10
333 330 332 334 332 333 338 340 338 338 344 351 351 351 352 349 344 341 341 343 345 347 347 344 339 325 275 227 206 193 178 166 181 186 178 169 170 172 171 178 191 198 195 194 195 190 185 184 185 184 186 189 190 190 189 186 181 177 176 178 178 176 172 168 166 160 143 122 85 48 34 25 21 20 17 13 11 10 9 11 11 11 11 11 11
337 334 334 335 333 332 335 337 336 336 340 348 354 356 354 350 345 342 343 344 344 346 349 350 348 340 287 193 182 182 175 151 161 176 175 167 166 165 163 169 182 193 195 195 196 192 186 182 180 181 184 187 188 188 188 184 180 177 178 181 181 176 172 173 171 162 148 129 84 40 25 18 16 16 14 11 8 7 9 10 10 10 11 10 10
342 338 337 336 334 332 331 332 333 335 336 342 351 355 354 351 348 345 346 347 344 344 351 358 359 359 55 155 162 168 162 137 149 167 170 167 166 165 166 174 183 190 190 191 192 190 186 182 178 178 181 184 186 186 183 180 178 178 179 181 180 176 176 179 176 166 160 154 100 20 9 8 10 11 11 8 6 6 9 10 9 9 10 10 9
345 343 341 337 333 330 328 325 327 332 335 338 346 352 353 353 350 348 348 347 344 347 356 3 8 23 98 138 149 155 147 127 143 162 166 165 169 172 174 181 190 192 189 187 186 185 184 182 179 178 180 183 184 183 180 178 179 181 181 182 181 180 182 183 178 173 179 188 200 347 349 356 1 4 6 5 3 5 8 9 9 9 8 8 8
347 346 344 340 334 330 326 321 322 328 332 337 343 349 351 352 351 351 350 347 344 351 3 11 21 50 110 136 143 147 141 130 141 157 161 165 175 182 184 188 195 195 191 187 184 182 182 182 180 178 180 183 185 183 181 179 181 183 185 185 184 183 185 185 182 186 198 211 248 307 329 344 350 354 360 1 360 1 5 7 8 8 8 7 7
350 348 346 343 337 332 328 325 324 327 331 335 339 342 348 353 353 353 353 351 349 359 12 22 34 70 116 138 146 149 147 142 148 159 165 173 184 190 192 195 197 196 193 190 184 181 181 182 183 182 182 185 186 185 182 182 183 185 187 188 188 188 188 187 189 199 213 228 261 294 316 332 340 346 354 357 356 359 3 4 5 6 7 7 6
351 349 349 347 342 335 332 332 331 331 333 334 334 337 347 356 356 356 359 359 357 4 17 28 42 86 125 145 157 160 155 149 156 167 174 181 189 194 198 201 200 196 193 189 185 184 186 189 191 190 187 187 187 185 184 184 186 187 188 189 189 192 193 193 199 208 219 236 262 285 304 322 332 340 347 350 352 356 360 1 2 4 5 5 5
353 352 351 351 347 340 337 336 336 338 338 334 332 339 350 356 358 360 2 1 1 7 19 27 41 90 133 154 169 173 165 154 161 174 182 186 190 195 200 205 204 201 198 188 181 185 190 194 194 192 189 187 187 185 184 185 186 189 192 193 193 195 198 201 207 214 222 238 258 277 296 313 326 334 339 344 350 353 357 358 359 0 1 2 2
356 356 355 353 350 347 344 341 340 341 339 332 333 343 348 350 358 3 3 3 6 12 17 23 36 71 134 163 176 183 179 162 158 175 186 189 190 191 197 203 205 204 202 189 176 178 184 188 189 189 189 189 189 186 185 186 187 190 194 196 197 200 202 206 213 219 225 239 255 271 291 308 320 327 332 339 345 349 352 355 356 357 358 359 359
358 358 357 355 354 353 351 347 345 345 341 334 333 338 340 348 2 9 7 8 12 16 20 24 31 45 122 167 175 183 185 175 159 172 187 188 183 184 190 194 192 192 195 189 178 174 177 181 183 184 186 188 188 185 183 183 187 192 197 199 200 203 205 210 218 224 228 239 253 267 288 305 314 321 328 334 339 343 347 350 352 354 356 357 357
358 359 359 358 359 1 0 357 355 352 344 337 336 337 345 1 12 13 14 17 20 22 24 25 28 36 102 166 166 172 183 181 164 165 179 178 169 166 170 170 167 168 172 173 171 169 172 175 178 180 181 181 180 177 174 175 182 190 196 199 201 204 208 212 221 226 230 239 252 268 289 304 310 318 325 329 332 337 341 345 349 351 353 355 355
1 1 1 1 3 7 10 11 9 3 355 356 3 2 5 16 22 21 23 25 25 24 23 23 29 43 94 162 156 156 169 171 157 156 164 159 150 148 149 150 153 156 159 162 165 168 171 172 175 178 178 176 173 172 171 174 182 189 195 200 202 204 208 214 222 228 231 240 255 270 291 305 311 317 322 324 328 333 337 340 345 348 350 351 353
4 4 3 3 6 11 16 18 19 20 19 16 14 15 22 31 39 32 26 28 32 30 26 26 33 47 88 150 147 143 153 154 146 148 151 145 138 139 142 144 148 152 156 161 166 170 170 170 171 175 176 175 173 173 173 176 181 189 195 200 202 204 208 215 222 228 234 245 262 280 297 308 312 316 320 324 328 332 336 340 344 346 347 349 351
8 7 6 7 9 14 20 25 28 32 32 29 27 31 38 47 52 32 29 39 44 36 30 31 37 47 86 140 143 138 144 147 142 141 143 140 137 137 136 135 139 147 154 159 163 167 168 167 165 168 174 175 173 171 169 169 172 178 184 192 197 202 208 216 225 233 243 258 277 293 304 310 314 319 323 326 330 334 337 340 343 344 345 346 348
10 10 10 11 12 18 25 29 32 38 41 38 37 40 46 47 40 31 40 57 54 38 30 32 41 53 90 136 142 138 139 140 139 140 141 140 140 139 132 123 125 137 148 154 157 160 164 165 163 166 172 173 171 167 165 164 165 170 178 188 198 204 212 223 233 245 260 276 291 300 307 313 318 322 325 328 332 335 336 338 340 342 343 344 346
12 12 12 13 15 21 26 28 31 40 44 42 42 48 50 41 31 35 51 58 47 31 24 32 47 61 96 136 142 139 136 136 137 140 142 143 145 145 138 124 116 121 132 143 150 155 161 165 166 168 171 172 170 168 167 166 166 171 180 191 202 209 220 235 246 262 278 287 295 302 308 313 318 321 324 328 329 331 334 336 338 339 341 342 344
13 13 14 15 17 22 27 29 32 42 48 46 44 47 48 44 40 42 43 38 28 19 20 35 55 71 107 137 142 138 135 137 138 140 143 145 146 147 145 137 125 116 121 135 146 153 160 166 170 171 173 175 176 176 177 177 176 178 185 197 207 217 234 246 258 273 283 289 297 304 307 311 316 318 320 323 325 328 332 334 335 337 339 341 343
11 12 14 16 17 21 25 28 32 41 48 48 44 40 39 40 40 33 24 15 13 15 24 43 61 83 118 138 140 137 136 138 139 141 144 147 146 145 146 146 140 126 123 133 144 152 159 167 171 174 176 180 183 186 189 190 187 188 195 201 208 224 242 254 266 280 287 294 302 306 306 310 314 316 318 322 326 328 331 333 334 336 339 340 342